Voltar ao catálogo

IRIDE-MS1-EAG2-16

AtivoCiênciaSSO
NORAD 68452·PAYLOAD·🇮🇹 Italy

Lançado Mar 30, 2026 de Vandenberg Space Force Base

Loading…

Próximas Passagens (próximas 24 horas)

TLE

AtualizadoSource: Space-Track

Época: Sep 14, 2026, 20:12 UTC

1 68452U 26067AN  26257.84206817  .00006927  00000-0  33330-3 0  9993
2 68452  97.4645 215.0603 0006031 101.3723 258.8189 15.19082066 25541

Acompanhe IRIDE-MS1-EAG2-16 em tempo real com AllMySat

Download on the App Store